Location: Newark
(53.3333°N, 83.7500°E)
Time: 13:15:55
(UTC+00:00)

deb Explorer IX - Visible Passes

Search period start: 15 November 2019 00:00
Search period end: 25 November 2019 00:00
Orbit: 546 x 1105 km, 38.8° (Epoch: 14 November)

Date Brightness Start Highest point End Pass type
(mag) Time Alt. Az. Time Alt. Az. Time Alt. Az.
15 Nov ? 00:27:44 10° SW 00:29:24 12° SSW 00:30:58 10° S visible
15 Nov ? 22:23:25 13° SSE 22:23:25 13° SSE 22:24:26 10° SE visible
16 Nov ? 00:05:34 10° SW 00:07:28 12° SSW 00:09:17 10° S visible
16 Nov ? 22:02:41 10° SE 22:02:41 10° SE 22:02:44 10° SE visible
16 Nov ? 23:44:04 11° SSW 23:45:32 13° SSW 23:47:35 10° S visible
17 Nov ? 23:23:20 13° SSW 23:23:36 13° SSW 23:25:53 10° SSE visible
18 Nov ? 23:02:36 13° S 23:02:36 13° S 23:04:09 10° SSE visible
19 Nov ? 22:41:53 11° S 22:41:53 11° S 22:42:25 10° SSE visible
